Location: Fours
(44.3167°N, 6.7000°E)
Time: 01:58:15
(UTC+00:00)

Cosmos 2263 Rocket - Pass Details

Date: 16 October 2021
Orbit: 825 x 847 km, 71.0° (Epoch: 02 December)

Event Time Altitude Azimuth Distance (km) Brightness Sun altitude
Rises 17:19:31 0° 342° (NNW) 3,376 5.5 -6.5°
Reaches altitude 10° 17:22:29 10° 357° (N) 2,437 4.6 -7.1°
Maximum altitude 17:26:53 23° 49° (NE) 1,680 3.3 -7.8°
Drops below altitude 10° 17:31:16 10° 102° (ESE) 2,425 4.0 -8.6°
Enters shadow 17:31:32 - 104° (ESE) 2,501 4.1 -8.7°
